星链-30944 (STARLINK-30944 )

导读

STARLINK-30944是美国太空探索技术公司(SpaceX)星链星座的卫星,于2023年11月28日发射升空,运行于近地轨道。它依托星链星座标准化量产优势,配备相控阵天线与氩气推进系统,可提供低时延卫星宽带服务,支撑全球覆盖的天基通信网络,服务于消费端联网、商业场景拓展及国防安全等多元领域。

Basic Information
目录编号:
58451
目录名称:
STARLINK-30944
国际标识:
2023-183Q
轨道中心:
EARTH
卫星名称:
星链-30944
卫星全名:
星链-30944 (STARLINK-30944 )
卫星状态:
在轨 (已飞行1011 天)
发射日期:
2023-11-28 UTC
国别 :
美国 (US)
星等 :
--
Orbit Information
数据来源 国际轨道数据
星历时间: 2026-09-04T09:10:43+0800
9小时前
查看轨道信息
半长轴: 6861.199km
偏心率: 0.0001912
轨道倾角: 43.000°
近地点辐角 260.582°
升交点赤经 114.203°
平近点角 99.481°
近地点: 481.75km
远地点: 484.374km
周期: 94.267分钟
每日圈数: 15.275759
Detailed Information
固有亮度:
5
最大亮度:
0.3
卫星平台:
Starlink v2.0 mini
覆盖范围:
全球
运营商:
太空探索技术公司
运营商所在国:
美国
制造商(研发单位):
太空探索技术公司
制造商所在国:
美国
使用方式:
暂无
Satellite Introduction
星链(Starlink)计划是由太空探索技术公司(SpaceX)提出的一个巨型低轨卫星互联网星座项目,计划在2019年至2024年间在太空搭建由约1.2万颗卫星组成的“星链”网络,其中1584颗将部署在地球上空550千米处的近地轨道,并从2020年开始工作。该卫星仍在工作。
2D Orbit Map
3D Orbit Map
Orbit Altitude Analysis Chart
Orbit Inclination Analysis Chart
Orbit Comprehensive Analysis Chart
View Comprehensive Chart
Conjunction Data List
Event ID Objects TCA Miss Dist (km) Collision Risk Probability Collision Risk Index (CRI) Action
CDM_260904-200805-845106-783121
2026-09-04T
20:08:33+0000
0.442 km
远距离
2.091451E-4 高风险 0.81
CDM_260905-075405-845106-783121
2026-09-05T
07:54:43+0000
0.680 km
远距离
6.975082E-5 中风险 0.72
CDM_260906-112205-845106-221521
2026-09-06T
11:22:58+0000
1.145 km
极远距离
1.23789E-5 中风险 0.57
CDM_260906-112005-845106-347821
2026-09-06T
11:20:35+0000
1.277 km
极远距离
8.782933E-6 低风险 0.54
CDM_260905-114605-845106-792321
2026-09-05T
11:46:30+0000
1.654 km
极远距离
3.82988E-6 低风险 0.47
CDM_260904-231505-845106-008521
2026-09-04T
23:15:23+0000
1.934 km
极远距离
3.052225E-6 低风险 0.45
CDM_260906-125405-845106-347821
2026-09-06T
12:54:45+0000
1.956 km
极远距离
2.355212E-6 低风险 0.42
CDM_260903-183105-845106-075022
OBJECT F (60750)
2026-09-03T
18:31:54+0000
2.399 km
极远距离
1.61407E-6 低风险 0.39
CDM_260904-214205-845106-783121
2026-09-04T
21:42:42+0000
2.743 km
极远距离
1.173362E-6 低风险 0.36
CDM_260906-094805-845106-221521
2026-09-06T
09:48:49+0000
2.806 km
极远距离
1.128571E-6 低风险 0.36